Flag for Mexico Weather past 2 weeks in Playa del Carmen, Quintana Roo, Mexico

Now
82 °F

Scattered clouds.


Feels Like: 91 °F
Forecast: 79 / 90 °F
Wind: 12 mph from North

Location: Cozumel Civ / Mil

Current Time: Jul 30, 2014 at 12:22:57 PM

Latest Report: Jul 30, 2014 at 11:38 AM


Visibility: 8 mi

Pressure: 30.04 "Hg

Humidity: 84%

Dew point: 77 °F

Location of Playa del CarmenLocation

Historic Weather in Playa del Carmen — Graph

°F

Playa del Carmen temperature yesterday

Maximum temperature yesterday: 90 °F (at 2:46 PM)
Minimum temperature yesterday: 72 °F (at 5:40 AM)
Average temperature yesterday: 80 °F

Past Weeks' High & Low Weather Summary

 TemperatureHumidityPressure
High90 °F (Jul 19, 2:42 PM)100% (Jul 15, 10:41 PM)30.10 "Hg (Jul 15, 10:41 PM)
Low72 °F (Jul 18, 4:53 AM)49% (Jul 23, 2:44 PM)29.91 "Hg (Jul 29, 4:22 AM)
Average80 °F87%30.02 "Hg
* Reported Jul 15 10:45 AM — Jul 30 10:51 AM, Playa del Carmen, Weather by CustomWeather, © 2014

Note: Actual official high and low records may vary slightly from our data, if they occured in-between our weather recording intervals... More about our weather records

Advertising

Playa del Carmen weather history for previous 24 hours

 ConditionsComfort  
Time TempWeatherWind HumidityBarometerVisibility
10:51 AM
Jul 30
82 °FPartly sunny.9 mph89%30.05 "Hg8 mi
9:47 AM79 °FScattered clouds.7 mph100%30.07 "Hg8 mi
8:46 AM81 °FScattered clouds.No wind89%30.04 "Hg8 mi
7:45 AM79 °FScattered clouds.No wind100%30.04 "Hg8 mi
6:40 AM72 °FPassing clouds.No wind100%30.00 "Hg7 mi
5:44 AM72 °FPassing clouds.No wind100%30.02 "Hg7 mi
4:44 AM73 °FPassing clouds.No wind100%30.00 "Hg7 mi
3:46 AM73 °FPassing clouds.No wind100%30.04 "Hg7 mi
2:40 AM73 °FPassing clouds.No wind100%30.02 "Hg7 mi
1:02 AM75 °FPassing clouds.No wind100%30.02 "Hg7 mi
11:43 PM
Jul 29
77 °FPassing clouds.3 mph94%30.06 "Hg7 mi
10:46 PM77 °FPassing clouds.3 mph94%30.07 "Hg7 mi
9:47 PM77 °FPassing clouds.No wind94%30.09 "Hg7 mi
8:45 PM79 °FPassing clouds.3 mph89%30.05 "Hg7 mi
7:43 PM81 °FScattered clouds.6 mph89%30.05 "Hg8 mi
6:45 PM82 °FScattered clouds.9 mph84%30.01 "Hg8 mi
5:51 PM84 °FPassing clouds.8 mph79%30.03 "Hg8 mi
4:43 PM88 °FPassing clouds.14 mph66%30.01 "Hg8 mi
3:51 PM88 °FPassing clouds.14 mph62%30.02 "Hg8 mi
2:46 PM90 °FScattered clouds.6 mph59%30.03 "Hg8 mi
1:45 PM88 °FPartly sunny.7 mph66%30.05 "Hg8 mi
12:49 PM84 °FPartly sunny.7 mph74%30.03 "Hg8 mi
Weather by CustomWeather, © 2014

See weather overviewHow to use our weather pages